CW1795 Weather Reports


Display with metric or nautical units.
time (UTC)temp
F
wind
direction
speed
MPH
gust
MPH
rain 1hr
in
rain 24hr
in
rain mn
in
humidity
%
barometer
mb
20180116094503 4 32 1.0 2.0 0.00 0.00 0.00 86 1030.3
20180116094005 4 31 2.0 3.0 0.00 0.00 0.00 86 1030.3
20180116093503 5 27 2.0 3.0 0.00 0.00 0.00 86 1030.3
20180116093006 5 25 3.0 5.0 0.00 0.00 0.00 87 1030.4
20180116091503 4 19 2.0 3.0 0.00 0.00 0.00 86 1030.4
20180116091005 4 17 3.0 3.0 0.00 0.00 0.00 86 1030.3
20180116090503 4 18 3.0 3.0 0.00 0.00 0.00 86 1030.4
20180116090004 4 14 3.0 3.0 0.00 0.00 0.00 86 1030.7
20180116084503 4 359 3.0 3.0 0.00 0.00 0.00 85 1030.7
20180116084005 4 9 3.0 3.0 0.00 0.00 0.00 85 1030.8
20180116083504 4 11 3.0 3.0 0.00 0.00 0.00 85 1030.8
20180116083005 4 10 3.0 3.0 0.00 0.00 0.00 86 1030.8
20180116081503 4 18 3.0 3.0 0.00 0.00 0.00 86 1030.9
20180116081005 5 7 3.0 3.0 0.00 0.00 0.00 86 1030.9
20180116080503 5 19 3.0 5.0 0.00 0.00 0.00 85 1031.0
20180116080004 5 23 4.0 7.0 0.00 0.00 0.00 85 1031.1
20180116074504 5 17 5.0 8.0 0.00 0.00 0.00 86 1031.0
20180116074005 5 24 5.0 8.0 0.00 0.00 0.00 85 1031.1
20180116073503 5 17 6.0 8.0 0.00 0.00 0.00 86 1031.2
20180116073006 5 346 3.0 5.0 0.00 0.00 0.00 85 1031.2
20180116071504 5 22 2.0 3.0 0.00 0.00 0.00 85 1031.6
20180116071005 5 24 3.0 5.0 0.00 0.00 0.00 85 1031.6
20180116070503 5 21 3.0 5.0 0.00 0.00 0.00 84 1031.6
20180116070004 5 21 2.0 5.0 0.00 0.00 0.00 84 1032.0
20180116064504 5 21 3.0 3.0 0.00 0.00 0.00 84 1031.9
20180116064005 5 21 2.0 3.0 0.00 0.00 0.00 83 1031.9
20180116063503 6 21 2.0 3.0 0.00 0.00 0.00 84 1031.9
20180116063005 6 21 2.0 3.0 0.00 0.00 0.00 84 1032.0
20180116061503 5 21 3.0 3.0 0.00 0.00 0.00 83 1032.0
20180116061005 5 22 3.0 3.0 0.00 0.00 0.00 83 1032.0
20180116060503 6 22 2.0 3.0 0.00 0.00 0.00 82 1032.1
20180116060004 6 22 3.0 3.0 0.00 0.00 0.00 83 1032.2
20180116054503 6 46 2.0 3.0 0.00 0.00 0.00 82 1032.2
20180116054005 6 46 1.0 2.0 0.00 0.00 0.00 82 1032.2
20180116053504 6 46 1.0 2.0 0.00 0.00 0.00 82 1032.3
20180116053006 6 46 1.0 3.0 0.00 0.00 0.00 82 1032.4
20180116051503 6 9 2.0 3.0 0.00 0.00 0.00 81 1032.4
20180116051005 6 9 1.0 2.0 0.00 0.00 0.00 81 1032.5
20180116050503 6 9 2.0 3.0 0.00 0.00 0.00 81 1032.3
20180116050004 6 9 2.0 3.0 0.00 0.00 0.00 81 1032.7
20180116044503 7 9 1.0 2.0 0.00 0.00 0.00 81 1032.7
20180116044005 7 9 1.0 2.0 0.00 0.00 0.00 81 1032.7
20180116043503 7 9 1.0 3.0 0.00 0.00 0.00 80 1032.8
20180116043006 7 9 2.0 3.0 0.00 0.00 0.00 80 1032.8
20180116041503 7 9 3.0 3.0 0.00 0.00 0.00 80 1032.6
20180116041006 8 9 3.0 3.0 0.00 0.00 0.00 80 1032.6
20180116040504 8 10 3.0 3.0 0.00 0.00 0.00 80 1032.5
20180116040003 8 11 3.0 3.0 0.00 0.00 0.00 80 1032.9
20180116034504 8 5 2.0 3.0 0.00 0.00 0.00 80 1032.8
20180116034005 8 5 2.0 3.0 0.00 0.00 0.00 80 1032.8
20180116033504 9 5 2.0 3.0 0.00 0.00 0.00 79 1032.9
20180116033006 9 10 3.0 5.0 0.00 0.00 0.00 79 1032.9
20180116031504 10 30 3.0 3.0 0.00 0.00 0.00 79 1032.8
20180116031005 10 34 3.0 3.0 0.00 0.00 0.00 80 1032.8
20180116030504 10 32 3.0 3.0 0.00 0.00 0.00 80 1032.8
20180116030004 10 53 2.0 5.0 0.00 0.00 0.00 80 1033.1
20180116024503 10 20 3.0 3.0 0.00 0.00 0.00 80 1033.1
20180116024005 10 20 3.0 3.0 0.00 0.00 0.00 80 1033.1
20180116023503 10 27 2.0 3.0 0.00 0.00 0.00 80 1033.1
20180116023005 10 27 2.0 3.0 0.00 0.00 0.00 80 1033.0
20180116021503 11 27 2.0 3.0 0.00 0.00 0.00 80 1032.8
20180116021005 11 27 2.0 3.0 0.00 0.00 0.00 79 1032.8
20180116020503 11 27 2.0 3.0 0.00 0.00 0.00 79 1032.8
20180116020003 11 28 2.0 3.0 0.00 0.00 0.00 78 1033.1
20180116014504 14 67 2.0 3.0 0.00 0.00 0.00 75 1033.2
20180116014005 15 72 3.0 7.0 0.00 0.00 0.00 75 1033.1
20180116013503 15 86 3.0 5.0 0.00 0.00 0.00 76 1033.0
20180116013006 15 76 3.0 5.0 0.00 0.00 0.00 75 1033.0
20180116011504 15 78 2.0 3.0 0.00 0.00 0.00 77 1032.9
20180116011004 14 130 1.0 2.0 0.00 0.00 0.00 77 1032.8
20180116010503 14 130 1.0 2.0 0.00 0.00 0.00 76 1032.7
20180116010004 15 130 2.0 3.0 0.00 0.00 0.00 75 1033.0
20180116004503 16 126 2.0 3.0 0.00 0.00 0.00 73 1033.1
20180116004005 16 126 2.0 3.0 0.00 0.00 0.00 74 1033.1
20180116003504 16 141 2.0 3.0 0.00 0.00 0.00 75 1033.2
20180116003006 15 150 3.0 5.0 0.00 0.00 0.00 74 1033.1
20180116001503 16 169 2.0 5.0 0.00 0.00 0.00 72 1033.0
20180116001005 17 160 4.0 6.0 0.00 0.00 0.00 70 1033.1
20180116000503 18 170 3.0 7.0 0.00 0.00 0.00 68 1033.1
20180116000005 19 135 6.0 9.0 0.00 0.00 0.00 65 1033.3
20180115234506 20 94 5.0 8.0 0.00 0.00 0.00 63 1033.2
20180115234006 21 83 5.0 9.0 0.00 0.00 0.00 63 1033.1
20180115233504 21 73 5.0 9.0 0.00 0.00 0.00 62 1033.1
20180115233006 21 75 6.0 9.0 0.00 0.00 0.00 63 1033.1
20180115231504 22 85 5.0 9.0 0.00 0.00 0.00 61 1033.2
20180115231006 22 69 4.0 7.0 0.00 0.00 0.00 60 1033.1
20180115230503 22 101 4.0 6.0 0.00 0.00 0.00 60 1033.1
20180115230004 22 85 3.0 8.0 0.00 0.00 0.00 61 1033.0
20180115224503 23 90 2.0 6.0 0.00 0.00 0.00 61 1033.0
20180115224005 23 99 4.0 7.0 0.00 0.00 0.00 61 1033.0
20180115223503 23 86 6.0 9.0 0.00 0.00 0.00 60 1033.0
20180115223006 23 75 2.0 8.0 0.00 0.00 0.00 60 1033.2
20180115221503 23 96 3.0 3.0 0.00 0.00 0.00 60 1032.9
20180115221005 24 73 4.0 7.0 0.00 0.00 0.00 61 1032.9
20180115220504 23 96 5.0 9.0 0.00 0.00 0.00 62 1032.9
20180115220004 23 117 3.0 8.0 0.00 0.00 0.00 63 1033.2
20180115214504 23 97 5.0 9.0 0.00 0.00 0.00 63 1033.3
20180115214006 24 83 3.0 8.0 0.00 0.00 0.00 62 1033.1
20180115213504 24 86 6.0 9.0 0.00 0.00 0.00 62 1033.0
20180115213005 25 74 4.0 8.0 0.00 0.00 0.00 62 1033.0
20180115211503 26 78 3.0 6.0 0.00 0.00 0.00 57 1033.0
20180115211005 25 29 5.0 8.0 0.00 0.00 0.00 56 1032.9
20180115210503 25 23 3.0 5.0 0.00 0.00 0.00 55 1033.0
20180115210004 25 34 2.0 8.0 0.00 0.00 0.00 56 1033.0
20180115204504 26 299 3.0 5.0 0.00 0.00 0.00 63 1033.1
20180115204005 25 346 4.0 7.0 0.00 0.00 0.00 59 1033.1
20180115203503 25 345 5.0 10.0 0.00 0.00 0.00 64 1033.1
20180115203005 25 2 5.0 10.0 0.00 0.00 0.00 60 1033.2
20180115201504 25 302 4.0 8.0 0.00 0.00 0.00 66 1033.2
20180115201005 25 315 2.0 5.0 0.00 0.00 0.00 68 1033.2
20180115200503 25 296 5.0 8.0 0.00 0.00 0.00 67 1033.2
20180115200004 25 300 5.0 8.0 0.00 0.00 0.00 68 1033.4
20180115194504 24 312 7.0 12.0 0.00 0.00 0.00 67 1033.6
20180115194005 24 294 5.0 12.0 0.00 0.00 0.00 71 1033.7
20180115193503 24 317 7.0 12.0 0.00 0.00 0.00 71 1033.7
20180115193005 24 290 5.0 12.0 0.00 0.00 0.00 71 1033.8
20180115191504 22 278 5.0 9.0 0.00 0.00 0.00 74 1033.4
20180115191006 22 298 10.0 13.0 0.00 0.00 0.00 73 1033.5
20180115190503 22 269 10.0 13.0 0.00 0.00 0.00 74 1033.5
20180115190004 22 275 7.0 14.0 0.00 0.00 0.00 75 1034.0
20180115184503 22 268 9.0 13.0 0.00 0.00 0.00 76 1034.1
20180115184005 22 279 10.0 16.0 0.00 0.00 0.00 76 1034.1
20180115183506 21 295 9.0 17.0 0.00 0.00 0.00 76 1034.2
20180115183005 21 273 13.0 17.0 0.00 0.00 0.00 76 1034.3
20180115181503 20 267 9.0 14.0 0.00 0.00 0.00 79 1034.9
20180115181006 20 268 7.0 16.0 0.00 0.00 0.00 78 1035.0
20180115180503 21 264 10.0 18.0 0.00 0.00 0.00 78 1034.8
20180115180004 21 272 11.0 17.0 0.00 0.00 0.00 78 1034.8
20180115174504 21 232 10.0 16.0 0.00 0.00 0.00 77 1035.3
20180115174005 20 288 6.0 9.0 0.00 0.00 0.00 79 1035.2
20180115173504 20 250 5.0 10.0 0.00 0.00 0.00 79 1035.2
20180115173005 20 274 9.0 15.0 0.00 0.00 0.00 79 1035.2
20180115171504 20 295 12.0 16.0 0.00 0.00 0.00 78 1035.1
20180115171005 19 288 7.0 16.0 0.00 0.00 0.00 78 1035.1
20180115170503 19 296 7.0 14.0 0.00 0.00 0.00 79 1034.9
20180115170003 18 307 11.0 16.0 0.00 0.00 0.00 79 1034.8
20180115164504 18 299 11.0 16.0 0.00 0.00 0.00 79 1034.8
20180115164007 18 311 11.0 15.0 0.00 0.00 0.00 79 1034.9
20180115163503 18 299 8.0 14.0 0.00 0.00 0.00 80 1035.0
20180115163005 17 298 9.0 16.0 0.00 0.00 0.00 79 1034.9
20180115161503 18 319 7.0 16.0 0.00 0.00 0.00 80 1034.7
20180115161004 18 310 10.0 14.0 0.00 0.00 0.00 80 1034.7
20180115160503 17 310 7.0 16.0 0.00 0.00 0.00 81 1034.8
20180115160004 17 275 8.0 17.0 0.00 0.00 0.00 81 1034.9
20180115154504 17 317 13.0 17.0 0.00 0.00 0.00 83 1034.5
20180115154006 17 309 10.0 16.0 0.00 0.00 0.00 83 1034.4
20180115153504 17 304 12.0 17.0 0.00 0.00 0.00 83 1034.4
20180115153006 16 309 12.0 21.0 0.00 0.00 0.00 83 1034.2
20180115151504 16 310 10.0 20.0 0.00 0.00 0.00 83 1034.2
20180115151005 16 323 11.0 20.0 0.00 0.00 0.00 83 1034.1
20180115150503 16 348 13.0 20.0 0.00 0.00 0.00 83 1034.1
20180115150003 16 330 11.0 24.0 0.00 0.00 0.00 83 1034.0
20180115144504 16 338 14.0 20.0 0.00 0.00 0.00 83 1033.8
20180115144006 16 340 11.0 20.0 0.00 0.00 0.00 83 1033.7
20180115143504 16 343 12.0 20.0 0.00 0.00 0.00 82 1033.6
20180115143006 16 334 12.0 20.0 0.00 0.00 0.00 82 1033.5
20180115141504 16 341 13.0 20.0 0.00 0.00 0.00 83 1033.4
20180115141005 16 335 12.0 20.0 0.00 0.00 0.00 84 1033.4
20180115140503 16 334 14.0 20.0 0.00 0.00 0.00 83 1033.3
20180115140004 16 334 10.0 22.0 0.00 0.00 0.00 83 1033.2
20180115134504 16 321 11.0 18.0 0.00 0.00 0.00 82 1033.0
20180115134005 16 323 12.0 18.0 0.00 0.00 0.00 83 1033.0
20180115133504 16 317 10.0 16.0 0.00 0.00 0.00 83 1033.0
20180115133007 16 312 13.0 20.0 0.00 0.00 0.00 82 1032.9
20180115131504 17 318 11.0 16.0 0.00 0.00 0.00 82 1032.9
20180115131005 17 5 12.0 16.0 0.00 0.00 0.00 81 1032.8
20180115130503 17 325 12.0 20.0 0.00 0.00 0.00 81 1032.7
20180115130004 17 328 12.0 24.0 0.00 0.00 0.00 81 1032.7
20180115124504 18 331 13.0 22.0 0.00 0.00 0.00 81 1032.6
20180115124005 18 333 13.0 22.0 0.00 0.00 0.00 81 1032.6
20180115123504 18 327 14.0 21.0 0.00 0.00 0.00 80 1032.6
20180115123006 18 335 13.0 23.0 0.00 0.00 0.00 80 1032.4
20180115121503 18 324 14.0 21.0 0.00 0.00 0.00 77 1032.3
20180115121005 18 317 16.0 25.0 0.00 0.00 0.00 77 1032.3
20180115120504 18 316 13.0 21.0 0.00 0.00 0.00 77 1032.3
20180115120004 18 307 14.0 24.0 0.00 0.00 0.00 77 1032.3
20180115114503 18 315 16.0 22.0 0.00 0.00 0.00 76 1032.3
20180115114006 18 316 15.0 24.0 0.00 0.00 0.00 76 1032.4
20180115113505 18 323 17.0 26.0 0.00 0.00 0.00 76 1032.3
20180115113005 18 320 17.0 25.0 0.00 0.00 0.00 77 1032.2
20180115111503 18 313 18.0 25.0 0.00 0.00 0.00 77 1032.0
20180115111005 18 311 15.0 22.0 0.00 0.00 0.00 77 1032.0
20180115110503 18 309 17.0 22.0 0.00 0.00 0.00 77 1032.1
20180115110004 19 310 15.0 22.0 0.00 0.00 0.00 77 1031.9
20180115104504 19 318 14.0 22.0 0.00 0.00 0.00 79 1031.9
20180115104005 19 316 14.0 21.0 0.00 0.00 0.00 79 1032.0
20180115103504 19 328 12.0 21.0 0.00 0.00 0.00 80 1031.9
20180115103006 19 330 14.0 20.0 0.00 0.00 0.00 80 1031.8
20180115101503 20 329 10.0 18.0 0.00 0.00 0.00 81 1031.8
20180115101005 20 339 12.0 21.0 0.00 0.00 0.00 81 1031.8
20180115100503 20 344 13.0 18.0 0.00 0.00 0.00 81 1031.6
20180115100005 20 338 14.0 20.0 0.00 0.00 0.00 81 1031.7